Torna al catalogo

STARLINK-31916

AttivoComunicazioniVLEO
NORAD 59795·PAYLOAD·🇺🇸 United States

Lanciato May 18, 2024 da Cape Canaveral Space Force Station

Loading…

Prossimi Passaggi (prossime 24 ore)

TLE

AggiornatoSource: CelesTrak SupGP

Epoca: Sep 14, 2026, 21:16 UTC

1 59795C 24093P   26257.88659722  .00033072  00000+0  11978-2 0  2571
2 59795  43.0003 220.4173 0001356 261.2608 347.6385 15.27562512    19

Traccia STARLINK-31916 in tempo reale con AllMySat

Download on the App Store